Retour au catalogue

STARLINK-5807

ActifCommunicationsVLEO
NORAD 55791·PAYLOAD·🇺🇸 United States

Lancé Mar 3, 2023 depuis Vandenberg Space Force Base

Loading…

Prochains Passages (prochaines 24 heures)

TLE

FraisSource: CelesTrak SupGP

Époque: Sep 15, 2026, 03:03 UTC

1 55791C 23028BC  26258.12756944 -.00049523  00000+0 -41502-2 0  2589
2 55791  70.0001  86.8704 0002877 269.7453 348.6480 14.98355988    14

Suivez STARLINK-5807 en temps réel avec AllMySat

Download on the App Store